Weather History for Pian Rosa, Italy

Change the Weather History Date:

Thursday, January 16, 2014

  Actual Average Record
Temperature  
Mean Temperature 16 °F -  
Max Temperature 18 °F 17 °F 30 °F (2011)
Min Temperature 14 °F 6 °F -9 °F (2013)
Degree Days  
Heating Degree Days 49    
Moisture  
Dew Point 15 °F    
Average Humidity 95    
Maximum Humidity 100    
Minimum Humidity 80    
Precipitation  
Precipitation 0.00 in - - ()
Sea Level Pressure  
Sea Level Pressure 29.72 in    
Wind  
Wind Speed 18 mph ()    
Max Wind Speed 40 mph    
Max Gust Speed 56 mph    
Visibility 0.1 miles    
Events Fog , Snow    
Averages and records for this station are not official NWS values.
T = Trace of Precipitation, MM = Missing Value Source: Averaged Metar Reports

Daily Weather History Graph

Daily Weather History Graph

Search for Another Location

Airport:

Trip Planner

Search our weather history database for the weather conditions in past years. The results will help you decide how hot, cold, wet, or windy it might be!

Date:

Astronomy

Jan. 16, 2014 Rise Set
Actual Time 8:06 AM CET 5:11 PM CET
Civil Twilight 7:33 AM CET 5:45 PM CET
Nautical Twilight 6:56 AM CET 6:22 PM CET
Astronomical Twilight 6:20 AM CET 6:57 PM CET
Moon 5:53 PM CET (1/16) 7:46 AM CET (1/16)
Length of Visible Light 10h 12m
Length of Day
9h 05m
Full, 100% of the Moon is Illuminated
Jan 16
Full
Jan 24
Last Quarter
Jan 30
New
Feb 6
First Quarter
Feb 15
Full

Hourly Weather History & Observations

Time (CET) Temp. Windchill Dew Point Humidity Pressure Visibility Wind Dir Wind Speed Gust Speed Precip Events Conditions
12:00 AM 15 °F - 12 °F 84%  in 0 mi SW 15.0 mph - - Snow Light Snow
12:55 AM 14.0 °F 0.5 °F 12.2 °F 93% 29.80 in 0.5 mi SW 11.5 mph - N/A Fog , Snow Light Snow
1:00 AM 14 °F - 13 °F 94%  in 0 mi SW 11.5 mph - - Snow Light Snow
1:55 AM 14.0 °F 1.2 °F 12.2 °F 93% 29.80 in 0.5 mi SW 10.4 mph 21.9 mph N/A Fog Light Freezing Fog
2:00 AM 14 °F - 13 °F 94%  in 0 mi SW 10.4 mph - - Fog Heavy Fog
2:55 AM 14.0 °F 2.9 °F 14.0 °F 100% 29.80 in 0.1 mi SW 8.1 mph - N/A Fog Light Freezing Fog
3:00 AM 14 °F - 14 °F 100%  in 0 mi SW 8.1 mph - - Fog Heavy Fog
3:55 AM 14.0 °F 2.9 °F 14.0 °F 100% 29.80 in 0.1 mi SW 8.1 mph - N/A Fog Light Freezing Fog
4:00 AM 15 °F - 15 °F 98%  in 0 mi SW 8.1 mph - - Fog Heavy Fog
4:55 AM 14.0 °F 1.2 °F 14.0 °F 100% 29.77 in 0.5 mi WSW 10.4 mph - N/A Fog Light Freezing Fog
5:00 AM 15 °F - 15 °F 98%  in 0 mi WSW 10.4 mph - - Fog Heavy Fog
5:55 AM 14.0 °F -2.0 °F 14.0 °F 100% 29.77 in 0.5 mi SW 16.1 mph - N/A Fog Light Freezing Fog
6:00 AM 15 °F - 15 °F 98%  in 0 mi SW 16.1 mph - - Fog Heavy Fog
6:55 AM 15.8 °F -1.5 °F 14.0 °F 93% 29.77 in 0.5 mi SSW 20.7 mph 33.4 mph N/A Fog Light Freezing Fog
7:00 AM 16 °F - 14 °F 87%  in 0 mi SSW 20.7 mph - - Fog Heavy Fog
7:55 AM 17.6 °F 0.1 °F 14.0 °F 86% 29.77 in 0.5 mi SSW 23.0 mph - N/A Fog Light Freezing Fog
8:00 AM 17 °F - 14 °F 81%  in 0 mi SSW 23.0 mph - - Fog Heavy Fog
8:55 AM 17.6 °F 0.9 °F 14.0 °F 86% 29.77 in 0.3 mi SSW 20.7 mph - N/A Fog Light Freezing Fog
9:00 AM 17 °F - 14 °F 81%  in 0 mi SSW 20.7 mph - - Fog Heavy Fog
9:55 AM 15.8 °F 2.7 °F 14.0 °F 93% 29.77 in 0.1 mi SSW 11.5 mph - N/A Fog Light Freezing Fog
10:00 AM 17 °F - 15 °F 85%  in 0 mi SSW 11.5 mph - - Fog Heavy Fog
10:55 AM 15.8 °F -1.9 °F 14.0 °F 93% 29.77 in 0.1 mi SSW 21.9 mph 33.4 mph N/A Fog Light Freezing Fog
11:00 AM 17 °F - 14 °F 82%  in 0 mi SSW 21.9 mph - - Fog Heavy Fog
11:55 AM 19.4 °F 1.8 °F 15.8 °F 86% 29.74 in 0.1 mi SSW 25.3 mph 38.0 mph N/A Fog Light Freezing Fog
12:00 PM 19 °F - 15 °F 80%  in 0 mi SSW 25.3 mph - - Fog Heavy Fog
12:55 PM 17.6 °F -1.6 °F 15.8 °F 93% 29.74 in 0.1 mi SSW 28.8 mph - N/A Fog Light Freezing Fog
1:00 PM 18 °F - 16 °F 88%  in 0 mi SSW 28.8 mph - - Fog Heavy Fog
1:55 PM 17.6 °F -1.6 °F 17.6 °F 100% 29.68 in 0.1 mi SSW 28.8 mph 44.9 mph N/A Fog Light Freezing Fog
2:00 PM 17 °F - 17 °F 98%  in 0 mi SSW 28.8 mph - - Fog Heavy Fog
2:55 PM 17.6 °F -3.1 °F 15.8 °F 93% 29.68 in 0.1 mi NW 34.5 mph 50.6 mph N/A Fog Light Freezing Fog
3:00 PM 17 °F - 16 °F 94%  in 0 mi NW 34.5 mph - - Fog Heavy Fog
3:55 PM 17.6 °F -1.3 °F 17.6 °F 100% 29.68 in 0.1 mi SSW 27.6 mph 42.6 mph N/A Fog Light Freezing Fog
4:00 PM 17 °F - 17 °F 99%  in 0 mi SSW 27.6 mph - - Fog Heavy Fog
4:55 PM 15.8 °F -3.1 °F 15.8 °F 100% 29.68 in 0.1 mi South 25.3 mph 39.1 mph N/A Fog Light Freezing Fog
5:00 PM 16 °F - 16 °F 100%  in 0 mi South 25.3 mph - - Fog Heavy Fog
5:55 PM 15.8 °F -4.4 °F 15.8 °F 100% 29.68 in 0.1 mi South 29.9 mph 43.7 mph N/A Fog Light Freezing Fog
6:00 PM 16 °F - 16 °F 99%  in 0 mi South 29.9 mph - - Fog Heavy Fog
6:55 PM 14.0 °F -7.7 °F 14.0 °F 100% 29.65 in 0.0 mi SSW 33.4 mph 49.5 mph N/A Fog Light Freezing Fog
7:00 PM 15 °F - 15 °F 98%  in 0 mi SSW 33.4 mph - - Fog Heavy Fog
7:55 PM 14.0 °F -9.3 °F 14.0 °F 100% 29.65 in 0.0 mi SSW 40.3 mph 56.4 mph N/A Fog Light Freezing Fog
8:00 PM 14 °F - 14 °F 100%  in 0 mi SSW 40.3 mph - - Fog Heavy Fog
8:55 PM 14.0 °F -7.7 °F 14.0 °F 100% 29.65 in 0.0 mi SSW 33.4 mph 48.3 mph N/A Fog Light Freezing Fog
9:00 PM 14 °F - 14 °F 100%  in 0 mi SSW 33.4 mph - - Fog Heavy Fog
9:55 PM 14.0 °F -7.4 °F 14.0 °F 100% 29.65 in 0.0 mi SSW 32.2 mph 44.9 mph N/A Fog Light Freezing Fog
10:00 PM 14 °F - 14 °F 100%  in 0 mi SSW 32.2 mph - - Fog Heavy Fog
10:55 PM 14.0 °F -6.2 °F 14.0 °F 100% 29.62 in 0.0 mi SSW 27.6 mph 42.6 mph N/A Fog Light Freezing Fog
11:00 PM 14 °F - 14 °F 100%  in 0 mi SSW 27.6 mph - - Fog Heavy Fog
11:55 PM 14.0 °F -0.8 °F 14.0 °F 100% 29.62 in 0.0 mi SSW 13.8 mph 31.1 mph N/A Fog Light Freezing Fog